Location: M�con, France
(46.3049°N, 4.8371°E)
Time: 01:29:49
(UTC+02:00)

ISS - Visible Passes

Search period start: 20 April 2025 00:00
Search period end: 30 April 2025 00:00
Orbit: 414 x 421 km, 51.6° (Epoch: 19 April)

Date Brightness Start Highest point End Pass type
(mag) Time Alt. Az. Time Alt. Az. Time Alt. Az.
20 Apr -2.4 06:04:16 10° SSW 06:07:16 32° SE 06:10:17 10° ENE visible
21 Apr -1.7 05:17:21 13° S 05:19:17 20° SE 05:21:49 10° E visible
22 Apr -1.3 04:31:07 13° SE 04:31:18 13° SE 04:32:52 10° ESE visible
22 Apr -3.7 06:04:14 10° SW 06:07:34 76° SSE 06:10:55 10° ENE visible
23 Apr -3.2 05:17:41 23° SSW 05:19:25 48° SE 05:22:39 10° ENE visible
24 Apr -2.6 04:31:15 30° SE 04:31:16 30° SE 04:34:15 10° ENE visible
24 Apr -3.3 06:04:37 10° W 06:07:54 54° NNW 06:11:12 10° ENE visible
25 Apr -1.1 03:44:45 14° ESE 03:44:45 14° ESE 03:45:38 10° E visible
25 Apr -3.7 05:17:39 23° WSW 05:19:36 76° NNW 05:22:57 10° ENE visible
26 Apr -3.9 04:31:04 68° S 04:31:18 73° SSE 04:34:38 10° ENE visible
27 Apr -2.0 03:44:24 27° E 03:44:24 27° E 03:46:15 10° ENE visible
27 Apr -2.9 05:17:18 15° W 05:19:48 43° NNW 05:23:02 10° ENE visible
28 Apr -0.6 02:57:42 10° E 02:57:42 10° E 02:57:42 10° E visible
28 Apr -3.4 04:30:35 42° WNW 04:31:22 56° NNW 04:34:41 10° ENE visible
29 Apr -2.8 03:43:49 46° NE 03:43:49 46° NE 03:46:17 10° ENE visible
29 Apr -2.3 05:16:56 10° WNW 05:20:00 32° N 05:23:04 10° ENE visible
